Regional Weather Roundup
Issued by NWS Charleston, SC

Home | Current Version | Previous Version | Text Only | Print | Product List | Glossary On
Versions: 1 2 3 4 5 6 7 8 9 10 11 12 13 14 15 16 17 18 19 20 21 22 23 24 25 26 27 28 29 30 31 32 33 34 35 36 37 38 39 40 41 42 43 44 45 46 47 48 49 50
000
ASUS42 KCHS 041826
RWRCHS

REGIONAL WEATHER ROUNDUP
NATIONAL WEATHER SERVICE CHARLESTON SC
200 PM EDT MON MAY 04 2015

NOTE: "FAIR" INDICATES FEW OR NO CLOUDS BELOW 12,000 FEET WITH NO
SIGNIFICANT WEATHER AND/OR OBSTRUCTIONS TO VISIBILITY.

NOT ALL STATIONS ARE QUALITY CONTROLLED BY THE NATIONAL
WEATHER SERVICE. USE DATA WITH CAUTION...ESPECIALLY
DEWPOINT OBSERVATIONS.

SCZ027-030-031-034>040-042>050-041900-
...SOUTHEAST SOUTH CAROLINA...

CITY           SKY/WX    TMP DP  RH WIND       PRES   REMARKS
N CHARLESTON   PTSUNNY   76  55  48 S13       30.33S
6HR MIN TEMP:  65; 6HR MAX TEMP:  80;

WATERFRONT PRK   N/A     73 N/A N/A E12         N/A
MOUNT PLEASANT FAIR      77  57  50 MISG      30.33F
PINOPOLIS      NOT AVBL
MONCKS CORNER  CLOUDY    77  55  47 SE3       30.32S
SUMMERVILLE    FAIR      82  55  39 SE9       30.32S
BEAUFORT MCAS  PTSUNNY   76  58  53 E13       30.32S
6HR MIN TEMP:  66; 6HR MAX TEMP:  80;

BEAUFORT ARPT  FAIR      77  57  50 E9        30.32S
HILTON HEAD IS MOSUNNY   75  61  60 E8        30.34S
WALTERBORO     CLOUDY    77  50  38 SE6       30.31F
ALLENDALE      FAIR      81  55  41 CALM      30.29F

...SOUTHERN MIDLANDS AND PEE DEE...

CITY           SKY/WX    TMP DP  RH WIND       PRES   REMARKS
GEORGETOWN     NOT AVBL
KINGSTREE      NOT AVBL
ORANGEBURG     PTSUNNY   79  52  38 SE6       30.31F
6HR MIN TEMP:  61; 6HR MAX TEMP:  81;

BARNWELL       FAIR      81  52  36 E5        30.31F
AIKEN          CLOUDY    79  46  31 CALM      30.34F
MANNING        FAIR      77  48  36 SW5       30.32F
COLUMBIA       PTSUNNY   80  49  33 VRB5      30.30F
6HR MIN TEMP:  58; 6HR MAX TEMP:  82;

SUMTER         SUNNY     80  50  34 VRB2      30.30F
6HR MIN TEMP:  62; 6HR MAX TEMP:  81;

FLORENCE       MOSUNNY   81  53  37 VRB3      30.31F
6HR MIN TEMP:  60; 6HR MAX TEMP:  82;

MYRTLE BEACH   MOSUNNY   79  57  47 S12       30.36S
N MYRTLE BEACH SUNNY     75  59  57 S12       30.35S
6HR MIN TEMP:  63; 6HR MAX TEMP:  76;


$$

GAZ063-065-086>088-099>101-113>116-118-119-134>141-150-041900-
...SOUTHEAST GEORGIA...

CITY           SKY/WX    TMP DP  RH WIND       PRES   REMARKS
SAVANNAH ARPT  PTSUNNY   80  53  39 E14G22    30.31S
6HR MIN TEMP:  61; 6HR MAX TEMP:  81;

HUNTER AAF     MOSUNNY   78  58  50 SE7       30.29F
6HR MIN TEMP:  64; 6HR MAX TEMP:  79;

FORT STEWART   NOT AVBL
STATESBORO       N/A     80  57  45 CALM      30.30S
SYLVANIA       MOCLDY    79  58  49 SE9       30.30F
CLAXTON        MOCLDY    79  59  50 E9        30.29S

...CSRA...CENTRAL AND FAR SOUTHEAST GEORGIA...

CITY           SKY/WX    TMP DP  RH WIND       PRES   REMARKS
THOMSON        MOSUNNY   83  55  38 CALM      30.34F
AUGUSTA-BUSH   SUNNY     79  49  34 SE3       30.30F
6HR MIN TEMP:  56; 6HR MAX TEMP:  81;

AUGUSTA-DANIEL PTSUNNY   81  52  36 VRB6      30.31F
SWAINSBORO     NOT AVBL
VIDALIA        PTSUNNY   81  54  39 E6        30.29F
EASTMAN        FAIR      83  55  37 E5        30.31F
HAZLEHURST     MOCLDY    80  55  42 NE6       30.28S
ALMA           MOSUNNY   81  55  40 E7        30.28F
6HR MIN TEMP:  58; 6HR MAX TEMP:  82;

WAYCROSS       PTSUNNY   83  60  46 E10G20    30.28F
JESUP          MOCLDY    82  61  47 SE12G17   30.29F
BAXLEY         FAIR      82  55  39 E7        30.27F
BRUNSWICK      PTSUNNY   79  52  38 E12G17    30.31S
SAINT SIMONS   SUNNY     78  59  51 E13       30.31S
6HR MIN TEMP:  66; 6HR MAX TEMP:  79;


$$

SCZ027-028-034-036>038-045-046-048>050-GAZ119-141-041900-
...LAKE AND SUPPLEMENTAL COASTAL OBSERVATIONS...

STATION/POSITION TIME  TEMP    WIND        PRES    WAVE   SWELL
                       AIR SEA DIR/SP/G            HT/PER HT/PER/DIR
                 (UTC) (F)     (DEG/KT/KT) (MB)    (FT/S) (FT/S/D)
UPR LAKE MARION  NOT AVBL
WINYAH BAY       1700   73     130/  9     1027.0
LAKE MURRAY      1700   75     150/  3/  5 1026.1F
ACE BASIN NERRS  NOT AVBL
FORT PULASKI     1800   72 70   80/ 11/ 13 1027.4F
SAPELO ISLAND    1800   78      80/  9     1026.0S

$$

ANZ835-935-AMZ111-154-330-350-352-354-370-450-454-472-041900-
...C-MAN AND BUOY OBSERVATIONS...

STATION/POSITION TIME  TEMP    WIND        PRES    WAVE   SWELL
                       AIR SEA DIR/SP/G            HT/PER HT/PER/DIR
                 (UTC) (F)     (DEG/KT/KT) (MB)    (FT/S) (FT/S/D)
BUOY 41004       1750   73 74   70/ 12/ 14 1026.8F   3/11   3/11
BUOY 41008       1750   71 71   80/ 10/ 12 1026.8S   2/11   2/ 40/11
FOLLY BEACH CMAN 1800   72     100/  9/ 10 1027.4F
CAPERS NEARSHORE 1708   72     110/  8/ 10 1027.6F
FRIPP NEARSHORE  1700   74     110/  8/ 10 1026.4F


STATION/POSITION TIME  TEMP    WIND        PRES    WAVE   SWELL
                       AIR SEA DIR/SP/G            HT/PER HT/PER/DIR
                 (UTC) (F)     (DEG/KT/KT) (MB)    (FT/S) (FT/S/D)
5E ST. MARYS GA  1721      73                N/A     2/13   2/ 80/13
FRYING PAN BUOY  1750   74 72  140/ 10/ 12 1028.7F   3/10   3/100/10
BUOY 41025       1750   71 79  250/  4/  4 1027.9F   4/10   3/ 60/10
CAPE LOOKOUT NC  1800   71     160/  7/  8 1027.6S
BUOY 41002       1750   68 70   90/ 12/ 16 1027.9F   5/10   3/ 30/10
BUOY 41010       1720   74 78   60/ 16/ 21 1024.3S
ST AUGUSTINE FL  1800   71 71  360/  7/  8 1026.0F


$$



USA.gov is the U.S. government's official web portal to all federal, state and local government web resources and services.